UAE836 OBBI-OMDB

Flight info

Callsign UAE836
Flight time 0h 53m
Altitude 25000
Route BHR N697 SODAK P559 VUTEB
Aircraft B77W/H-SDE1E2E3FGHIJ2J3J4J5M1RWXY/LB1D1

Departure

Time 2026-04-21 12:56
Airport Bahrain International Airport (OBBI)

Arrival

Time 2026-04-21 13:50
Airport Dubai International Airport (OMDB)
Time Latitude Longitude Altitude Speed Heading
2026-04-21 12:23 26.26785 50.63162 19 ft 0 kts 210°
2026-04-21 12:44 26.26805 50.63173 20 ft 4 kts 195°
2026-04-21 12:45 26.26831 50.63180 22 ft 4 kts 202°
2026-04-21 12:45 26.26851 50.63193 24 ft 4 kts 234°
2026-04-21 12:45 26.26854 50.63211 24 ft 4 kts 314°
2026-04-21 12:45 26.26835 50.63232 23 ft 3 kts 305°
2026-04-21 12:46 26.26833 50.63235 23 ft 0 kts 303°
2026-04-21 12:49 26.26835 50.63231 23 ft 2 kts 304°
2026-04-21 12:49 26.26860 50.63201 23 ft 6 kts 317°
2026-04-21 12:50 26.26896 50.63172 19 ft 6 kts 331°
2026-04-21 12:50 26.26936 50.63187 18 ft 7 kts 50°
2026-04-21 12:50 26.26940 50.63237 17 ft 7 kts 103°
2026-04-21 12:50 26.26921 50.63283 17 ft 7 kts 119°
2026-04-21 12:51 26.26892 50.63336 18 ft 13 kts 121°
2026-04-21 12:51 26.26830 50.63444 17 ft 17 kts 124°
2026-04-21 12:51 26.26765 50.63557 18 ft 17 kts 122°
2026-04-21 12:51 26.26700 50.63669 19 ft 17 kts 123°
2026-04-21 12:52 26.26634 50.63784 19 ft 18 kts 122°
2026-04-21 12:52 26.26565 50.63908 20 ft 18 kts 122°
2026-04-21 12:52 26.26497 50.64027 19 ft 18 kts 123°
2026-04-21 12:52 26.26428 50.64148 18 ft 18 kts 122°
2026-04-21 12:53 26.26358 50.64268 18 ft 18 kts 123°
2026-04-21 12:53 26.26288 50.64388 16 ft 18 kts 123°
2026-04-21 12:53 26.26218 50.64508 17 ft 18 kts 123°
2026-04-21 12:53 26.26149 50.64629 17 ft 18 kts 122°
2026-04-21 12:54 26.26081 50.64750 18 ft 18 kts 121°
2026-04-21 12:54 26.26031 50.64863 19 ft 16 kts 102°
2026-04-21 12:54 26.26057 50.64963 20 ft 13 kts 45°
2026-04-21 12:54 26.26104 50.64994 24 ft 1 kts 24°
2026-04-21 12:55 26.26111 50.64997 26 ft 1 kts 17°
2026-04-21 12:55 26.26135 50.64993 23 ft 16 kts 345°
2026-04-21 12:55 26.26174 50.64943 21 ft 3 kts 303°
2026-04-21 12:55 26.26188 50.64918 21 ft 9 kts 303°
2026-04-21 12:56 26.26426 50.64511 17 ft 126 kts 301°
2026-04-21 12:56 26.27088 50.63309 232 ft 221 kts 301°
2026-04-21 12:56 26.27854 50.61844 1849 ft 214 kts 306°
2026-04-21 12:56 26.28827 50.60621 3087 ft 216 kts 329°
2026-04-21 12:57 26.30279 50.60049 3748 ft 234 kts 348°
2026-04-21 12:57 26.31996 50.59689 4014 ft 265 kts 347°
2026-04-21 12:57 26.33818 50.59328 4004 ft 265 kts 348°
2026-04-21 12:57 26.35635 50.59004 3998 ft 264 kts 348°
2026-04-21 12:58 26.37449 50.58695 4003 ft 264 kts 347°
2026-04-21 12:58 26.39276 50.58402 3999 ft 265 kts 348°
2026-04-21 12:58 26.41090 50.58092 4327 ft 262 kts 347°
2026-04-21 12:58 26.42890 50.57848 5428 ft 260 kts 354°
2026-04-21 12:59 26.44684 50.58359 6381 ft 279 kts 28°
2026-04-21 12:59 26.46022 50.59951 7265 ft 294 kts 62°
2026-04-21 12:59 26.46652 50.62116 8047 ft 302 kts 79°
2026-04-21 12:59 26.47162 50.64420 9007 ft 310 kts 76°
2026-04-21 13:00 26.47906 50.66705 10031 ft 317 kts 69°
2026-04-21 13:00 26.48901 50.68965 10812 ft 334 kts 63°
2026-04-21 13:00 26.50157 50.71296 11140 ft 367 kts 58°
2026-04-21 13:00 26.51676 50.73739 11386 ft 400 kts 55°
2026-04-21 13:01 26.53414 50.76288 11904 ft 421 kts 52°
2026-04-21 13:01 26.55270 50.78872 12713 ft 432 kts 51°
2026-04-21 13:01 26.57208 50.81505 13622 ft 441 kts 50°
2026-04-21 13:01 26.59185 50.84169 14500 ft 447 kts 50°
2026-04-21 13:02 26.61151 50.86819 15459 ft 451 kts 49°
2026-04-21 13:02 26.63156 50.89528 16481 ft 454 kts 48°
2026-04-21 13:02 26.67218 50.95042 18263 ft 466 kts 47°
2026-04-21 13:03 26.69296 50.97870 18951 ft 473 kts 47°
2026-04-21 13:03 26.71393 51.00729 19713 ft 478 kts 48°
2026-04-21 13:03 26.73503 51.03612 20522 ft 479 kts 49°
2026-04-21 13:03 26.75258 51.06805 21083 ft 489 kts 68°
2026-04-21 13:04 26.76038 51.10519 21754 ft 494 kts 86°
2026-04-21 13:04 26.75936 51.14353 22575 ft 492 kts 102°
2026-04-21 13:04 26.75013 51.18005 23336 ft 487 kts 114°
2026-04-21 13:04 26.73809 51.21574 23849 ft 493 kts 115°
2026-04-21 13:05 26.72564 51.25183 24411 ft 498 kts 114°
2026-04-21 13:05 26.71350 51.28764 24869 ft 502 kts 114°
2026-04-21 13:05 26.70138 51.32438 24865 ft 504 kts 113°
2026-04-21 13:05 26.68952 51.36124 24871 ft 503 kts 113°
2026-04-21 13:06 26.67772 51.39817 24870 ft 503 kts 113°
2026-04-21 13:06 26.66592 51.43495 24863 ft 503 kts 113°
2026-04-21 13:06 26.65405 51.47182 24864 ft 503 kts 113°
2026-04-21 13:06 26.64235 51.50822 24864 ft 503 kts 113°
2026-04-21 13:07 26.63051 51.54506 24865 ft 503 kts 113°
2026-04-21 13:07 26.61867 51.58188 24849 ft 503 kts 113°
2026-04-21 13:07 26.60686 51.61857 24855 ft 503 kts 113°
2026-04-21 13:07 26.59503 51.65531 24860 ft 502 kts 113°
2026-04-21 13:08 26.58315 51.69213 24862 ft 502 kts 113°
2026-04-21 13:08 26.57128 51.72878 24857 ft 502 kts 113°
2026-04-21 13:08 26.55928 51.76560 24859 ft 502 kts 113°
2026-04-21 13:08 26.54744 51.80223 24857 ft 502 kts 113°
2026-04-21 13:09 26.53575 51.83858 24860 ft 501 kts 113°
2026-04-21 13:09 26.52396 51.87520 24856 ft 501 kts 113°
2026-04-21 13:09 26.51199 51.91169 24854 ft 500 kts 113°
2026-04-21 13:09 26.49988 51.94802 24844 ft 499 kts 113°
2026-04-21 13:10 26.48768 51.98438 24850 ft 499 kts 113°
2026-04-21 13:10 26.47557 52.02051 24848 ft 498 kts 113°
2026-04-21 13:10 26.46340 52.05691 24845 ft 498 kts 113°
2026-04-21 13:10 26.45148 52.09263 24845 ft 497 kts 113°
2026-04-21 13:11 26.43942 52.12875 24848 ft 497 kts 113°
2026-04-21 13:11 26.42731 52.16492 24841 ft 498 kts 113°
2026-04-21 13:11 26.41515 52.20117 24842 ft 498 kts 113°
2026-04-21 13:11 26.40300 52.23734 24841 ft 498 kts 114°
2026-04-21 13:12 26.39080 52.27362 24841 ft 498 kts 114°
2026-04-21 13:12 26.37866 52.30974 24843 ft 499 kts 114°
2026-04-21 13:12 26.36644 52.34606 24830 ft 499 kts 113°
2026-04-21 13:12 26.35423 52.38229 24835 ft 499 kts 113°
2026-04-21 13:13 26.34168 52.41783 24835 ft 498 kts 115°
2026-04-21 13:13 26.32806 52.45336 24839 ft 497 kts 116°
2026-04-21 13:13 26.31415 52.48867 24831 ft 497 kts 116°
2026-04-21 13:13 26.30029 52.52390 24829 ft 497 kts 116°
2026-04-21 13:14 26.28656 52.55923 24828 ft 497 kts 116°
2026-04-21 13:14 26.27293 52.59466 24835 ft 497 kts 116°
2026-04-21 13:14 26.25934 52.63017 24827 ft 497 kts 116°
2026-04-21 13:14 26.24579 52.66550 24826 ft 497 kts 116°
2026-04-21 13:15 26.23221 52.70089 24819 ft 497 kts 116°
2026-04-21 13:15 26.21861 52.73633 24827 ft 496 kts 116°
2026-04-21 13:15 26.20524 52.77121 24823 ft 496 kts 116°
2026-04-21 13:15 26.19169 52.80654 24827 ft 496 kts 116°
2026-04-21 13:16 26.17811 52.84190 24828 ft 496 kts 116°
2026-04-21 13:16 26.16452 52.87727 24824 ft 496 kts 116°
2026-04-21 13:16 26.15092 52.91262 24821 ft 496 kts 116°
2026-04-21 13:16 26.13734 52.94791 24821 ft 496 kts 116°
2026-04-21 13:17 26.12369 52.98334 24825 ft 496 kts 116°
2026-04-21 13:17 26.11009 53.01861 24828 ft 496 kts 116°
2026-04-21 13:17 26.09655 53.05388 24813 ft 495 kts 115°
2026-04-21 13:17 26.08338 53.08932 24819 ft 495 kts 114°
2026-04-21 13:18 26.07060 53.12435 24821 ft 495 kts 114°
2026-04-21 13:18 26.05774 53.15980 24818 ft 494 kts 114°
2026-04-21 13:18 26.04483 53.19527 24819 ft 494 kts 114°
2026-04-21 13:18 26.03184 53.23079 24818 ft 494 kts 114°
2026-04-21 13:19 26.01885 53.26618 24822 ft 494 kts 115°
2026-04-21 13:19 26.00585 53.30148 24820 ft 494 kts 115°
2026-04-21 13:19 25.99279 53.33687 24820 ft 494 kts 115°
2026-04-21 13:19 25.97988 53.37183 24817 ft 495 kts 115°
2026-04-21 13:20 25.97108 53.39567 24816 ft 495 kts 115°
2026-04-21 13:20 25.95375 53.44259 24817 ft 495 kts 115°
2026-04-21 13:20 25.94067 53.47796 24814 ft 495 kts 115°
2026-04-21 13:20 25.92763 53.51353 24815 ft 496 kts 114°
2026-04-21 13:21 25.91519 53.54926 24815 ft 496 kts 113°
2026-04-21 13:21 25.90301 53.58523 24816 ft 496 kts 113°
2026-04-21 13:21 25.89091 53.62105 24816 ft 496 kts 113°
2026-04-21 13:21 25.87869 53.65691 24816 ft 496 kts 113°
2026-04-21 13:22 25.86639 53.69264 24814 ft 496 kts 113°
2026-04-21 13:22 25.85401 53.72846 24814 ft 496 kts 113°
2026-04-21 13:22 25.84160 53.76412 24809 ft 496 kts 114°
2026-04-21 13:22 25.82910 53.79989 24799 ft 496 kts 113°
2026-04-21 13:23 25.81661 53.83562 24803 ft 497 kts 113°
2026-04-21 13:23 25.80411 53.87141 24807 ft 497 kts 113°
2026-04-21 13:23 25.79163 53.90713 24811 ft 497 kts 113°
2026-04-21 13:23 25.77907 53.94305 24809 ft 498 kts 113°
2026-04-21 13:24 25.76656 53.97882 24809 ft 498 kts 113°
2026-04-21 13:24 25.75444 54.01472 24513 ft 497 kts 110°
2026-04-21 13:24 25.74540 54.05197 23694 ft 502 kts 102°
2026-04-21 13:24 25.73939 54.09002 22950 ft 499 kts 101°
2026-04-21 13:25 25.73371 54.12782 22231 ft 494 kts 101°
2026-04-21 13:25 25.72803 54.16529 21569 ft 489 kts 101°
2026-04-21 13:25 25.72236 54.20175 20937 ft 483 kts 101°
2026-04-21 13:25 25.71655 54.23823 20300 ft 478 kts 101°
2026-04-21 13:26 25.71069 54.27435 19686 ft 473 kts 101°
2026-04-21 13:26 25.70484 54.31011 19079 ft 468 kts 101°
2026-04-21 13:26 25.69902 54.34553 18457 ft 465 kts 101°
2026-04-21 13:26 25.69323 54.38066 17803 ft 461 kts 101°
2026-04-21 13:27 25.68749 54.41553 17162 ft 456 kts 101°
2026-04-21 13:27 25.68190 54.44953 16561 ft 451 kts 101°
2026-04-21 13:27 25.67629 54.48357 15938 ft 447 kts 102°
2026-04-21 13:27 25.67073 54.51726 15344 ft 442 kts 102°
2026-04-21 13:28 25.66522 54.55057 14762 ft 438 kts 102°
2026-04-21 13:28 25.65974 54.58365 14228 ft 433 kts 102°
2026-04-21 13:28 25.65435 54.61622 13805 ft 425 kts 102°
2026-04-21 13:28 25.64904 54.64819 13293 ft 420 kts 102°
2026-04-21 13:29 25.64382 54.67958 12970 ft 409 kts 102°
2026-04-21 13:29 25.63873 54.71018 12774 ft 396 kts 103°
2026-04-21 13:29 25.63382 54.73970 12608 ft 384 kts 103°
2026-04-21 13:29 25.62903 54.76835 12441 ft 372 kts 103°
2026-04-21 13:30 25.62440 54.79607 12305 ft 361 kts 103°
2026-04-21 13:30 25.62140 54.81401 12194 ft 354 kts 103°
2026-04-21 13:30 25.61695 54.84056 12058 ft 344 kts 103°
2026-04-21 13:30 25.61241 54.86610 11910 ft 331 kts 108°
2026-04-21 13:31 25.60483 54.88946 11891 ft 314 kts 117°
2026-04-21 13:31 25.59585 54.91124 11711 ft 307 kts 118°
2026-04-21 13:31 25.58687 54.93237 11560 ft 299 kts 118°
2026-04-21 13:31 25.57829 54.95306 11415 ft 292 kts 118°
2026-04-21 13:32 25.57007 54.97340 11315 ft 294 kts 117°
2026-04-21 13:32 25.56185 54.99408 11191 ft 293 kts 117°
2026-04-21 13:32 25.55367 55.01478 11062 ft 293 kts 117°
2026-04-21 13:32 25.54544 55.03548 10946 ft 293 kts 119°
2026-04-21 13:33 25.53591 55.05539 10788 ft 292 kts 123°
2026-04-21 13:33 25.52565 55.07475 10639 ft 292 kts 124°
2026-04-21 13:33 25.51531 55.09408 10475 ft 292 kts 124°
2026-04-21 13:33 25.50508 55.11341 10325 ft 291 kts 124°
2026-04-21 13:34 25.49494 55.13275 10163 ft 290 kts 124°
2026-04-21 13:34 25.48491 55.15200 10020 ft 288 kts 123°
2026-04-21 13:34 25.47493 55.17120 9867 ft 287 kts 123°
2026-04-21 13:34 25.46499 55.19031 9717 ft 285 kts 123°
2026-04-21 13:35 25.45434 55.20822 9540 ft 279 kts 133°
2026-04-21 13:35 25.44156 55.22410 9397 ft 275 kts 137°
2026-04-21 13:35 25.42841 55.23947 9250 ft 273 kts 137°
2026-04-21 13:35 25.41541 55.25479 9102 ft 272 kts 136°
2026-04-21 13:36 25.40259 55.27020 8955 ft 273 kts 136°
2026-04-21 13:36 25.38971 55.28588 8818 ft 277 kts 135°
2026-04-21 13:36 25.37678 55.30169 8697 ft 275 kts 135°
2026-04-21 13:36 25.36410 55.31726 8530 ft 269 kts 135°
2026-04-21 13:37 25.35082 55.33093 8353 ft 253 kts 150°
2026-04-21 13:37 25.33602 55.34026 8241 ft 245 kts 156°
2026-04-21 13:37 25.32058 55.34886 8115 ft 245 kts 156°
2026-04-21 13:37 25.30557 55.35721 8000 ft 245 kts 156°
2026-04-21 13:38 25.29035 55.36580 7864 ft 246 kts 156°
2026-04-21 13:38 25.27516 55.37448 7737 ft 246 kts 155°
2026-04-21 13:38 25.25998 55.38323 7608 ft 246 kts 155°
2026-04-21 13:38 25.24484 55.39203 7469 ft 246 kts 154°
2026-04-21 13:39 25.22975 55.40084 7346 ft 245 kts 154°
2026-04-21 13:39 25.21466 55.40966 7213 ft 245 kts 154°
2026-04-21 13:39 25.19959 55.41847 7074 ft 244 kts 155°
2026-04-21 13:39 25.18467 55.42720 6955 ft 242 kts 155°
2026-04-21 13:40 25.16985 55.43587 6853 ft 239 kts 155°
2026-04-21 13:40 25.15517 55.44445 6746 ft 237 kts 155°
2026-04-21 13:40 25.14087 55.45281 6641 ft 235 kts 154°
2026-04-21 13:40 25.12647 55.46123 6549 ft 234 kts 154°
2026-04-21 13:41 25.11254 55.47035 6432 ft 235 kts 140°
2026-04-21 13:41 25.10289 55.48518 6371 ft 242 kts 121°
2026-04-21 13:41 25.09418 55.50139 6266 ft 248 kts 123°
2026-04-21 13:41 25.08521 55.51754 6148 ft 245 kts 123°
2026-04-21 13:42 25.07636 55.53344 6034 ft 241 kts 123°
2026-04-21 13:42 25.06768 55.54899 5933 ft 236 kts 123°
2026-04-21 13:42 25.05909 55.56436 5828 ft 234 kts 123°
2026-04-21 13:42 25.05059 55.57960 5739 ft 233 kts 122°
2026-04-21 13:43 25.04258 55.59537 5407 ft 243 kts 109°
2026-04-21 13:43 25.04253 55.61416 4844 ft 253 kts 67°
2026-04-21 13:43 25.05296 55.62870 4540 ft 240 kts 32°
2026-04-21 13:43 25.06854 55.63417 4146 ft 231 kts
2026-04-21 13:44 25.08424 55.63495 3955 ft 228 kts
2026-04-21 13:44 25.09957 55.63123 3698 ft 230 kts 331°
2026-04-21 13:44 25.11096 55.61916 3543 ft 229 kts 307°
2026-04-21 13:44 25.11980 55.60453 3354 ft 228 kts 304°
2026-04-21 13:45 25.12814 55.58973 3190 ft 227 kts 303°
2026-04-21 13:45 25.13637 55.57487 3010 ft 228 kts 303°
2026-04-21 13:45 25.14448 55.56014 2825 ft 216 kts 304°
2026-04-21 13:45 25.15197 55.54661 2638 ft 197 kts 303°
2026-04-21 13:46 25.15885 55.53418 2396 ft 187 kts 306°
2026-04-21 13:46 25.16557 55.52205 2227 ft 183 kts 305°
2026-04-21 13:46 25.17206 55.51032 2061 ft 172 kts 305°
2026-04-21 13:46 25.17818 55.49928 2013 ft 166 kts 305°
2026-04-21 13:47 25.18424 55.48834 1896 ft 170 kts 306°
2026-04-21 13:47 25.19046 55.47714 1696 ft 169 kts 306°
2026-04-21 13:47 25.19644 55.46631 1462 ft 166 kts 306°
2026-04-21 13:47 25.20243 55.45548 1241 ft 166 kts 307°
2026-04-21 13:48 25.20843 55.44463 1035 ft 161 kts 306°
2026-04-21 13:48 25.21410 55.43440 812 ft 152 kts 305°
2026-04-21 13:48 25.21963 55.42461 638 ft 146 kts 305°
2026-04-21 13:48 25.22462 55.41490 448 ft 143 kts 304°
2026-04-21 13:49 25.23006 55.40523 302 ft 154 kts 304°
2026-04-21 13:49 25.23561 55.39522 89 ft 149 kts 304°
2026-04-21 13:49 25.24076 55.38605 27 ft 128 kts 300°
2026-04-21 13:49 25.24480 55.37883 27 ft 93 kts 300°
2026-04-21 13:50 25.24719 55.37450 27 ft 30 kts 297°
2026-04-21 13:50 25.24761 55.37315 27 ft 24 kts 283°
2026-04-21 13:50 25.24779 55.37123 27 ft 25 kts 272°
2026-04-21 13:50 25.24786 55.37034 27 ft 0 kts 276°
2026-04-21 13:52 25.24786 55.37033 27 ft 1 kts 276°
2026-04-21 13:52 25.24787 55.37013 27 ft 4 kts 265°
2026-04-21 13:52 25.24768 55.36976 27 ft 7 kts 230°
2026-04-21 13:52 25.24736 55.36919 27 ft 10 kts 260°
2026-04-21 13:53 25.24751 55.36847 25 ft 10 kts 290°
2026-04-21 13:53 25.24759 55.36819 27 ft 0 kts 274°
2026-04-21 13:53 25.24759 55.36815 27 ft 1 kts 274°
2026-04-21 13:54 25.24761 55.36802 27 ft 2 kts 281°
2026-04-21 13:54 25.24762 55.36780 27 ft 3 kts 269°
2026-04-21 13:54 25.24755 55.36750 27 ft 4 kts 251°
2026-04-21 13:54 25.24741 55.36717 27 ft 5 kts 243°
2026-04-21 13:55 25.24724 55.36680 27 ft 6 kts 240°
2026-04-21 13:55 25.24716 55.36664 27 ft 3 kts 239°
2026-04-21 13:55 25.24711 55.36654 27 ft 2 kts 239°
2026-04-21 13:55 25.24706 55.36644 27 ft 1 kts 239°
2026-04-21 13:56 25.24703 55.36640 27 ft 0 kts 239°